BREEZE-M DEB, 41317

Orbit data source: Space-Track

BREEZE-M DEB, 41317 is space debris in HEO originally from a launch on Thu, 17 May 2012 UTC launched from the Tyuratam Missile And Space Complex (TTMTR). Debris objects in space refer to the collection of defunct objects orbiting the Earth. Examples of debris include non-operational satellites, rocket bodies, and fragments generated from explosions, collisions, or faulty payload assembly.

Loading next visibility...
Identifier
41317, 2012-026D
Orbit
HEO
Country
Flag of CISCIS
Related business
Manufacturer
Khrunichev
Mission
Spacecraft
Bus & Motor
Unknown
Mass
Unknown
Launch date (UTC)
2012-05-17 (13 years ago)
Launch vehicle
Unknown
Launch site
Tyuratam Missile And Space Complex (TTMTR)
Object type
Payload
Rocket body
Debris
Shape & HBR
Unknown
Radar Cross Section
Medium (>0.1 m² and <1 m²)

Expand to show TLE details & history
Last TLE update: 1 day ago

TLE from 1 day ago
0 BREEZE-M DEB
1 41317U 12026D   25260.88515700 -.00000142  00000-0  00000-0 0  9994
2 41317  10.1317 151.0337 4087146  20.1677 352.2286  1.79269829 63701
Epoch: 2025-09-17T21:14Z
TLE epoch observation values (Epoch: 2025-09-17T21:14:37.564Z)
Latitude
-0°
Longitude
-164.61899°
Altitude
10,823.994 km
Speed
5.694 km/s
True Right ascension
10h 04m 22s
True Declination
0° 00' 00"
Sunlit
Object was in daylight at epoch
Visualization orbit readout
Latitude
Unknown
Longitude
Unknown
Altitude
Unknown
Speed
Unknown
Apparent Right ascension
Unknown
Apparent Declination
Unknown
Sunlit
N/A
Visualization observer readout
Local Sidereal Time
14:40:06
Azimuth
Unknown
Elevation
Unknown
Doppler factor
Unknown
Orbital elements
Apogee altitude
33,947.658 km
Perigee altitude
10,547.97 km
Semi-major axis
28,625.951 km
Eccentricity
0.40871
Inclination
10.1317°
RAAN
151.0337°
Arg. of periapsis
20.1677°
True anomaly
339.95283°
Mean anomaly
352.2286°
Eccentric anomaly
346.93483°
Mean motion
0.44813 °/min
Orbital period
803.34 mins
BSTAR
0
Loading maneuver chart data...
Computing Atmospheric mass density...
Loading historical data...
Loading historical data...
Loading historical data...
Loading historical data...
Loading historical data...
Loading historical data...
Loading historical data...

Documentation

Showing up to 5 results
|